Showing default

CONNECTA IOT-3, 60475

Orbit data source: Space-Track

CONNECTA IOT-3, 60475 is a payload satellite owned by Plan-S (TR) in SSO that was launched on Fri, 16 Aug 2024 UTC via an FALCON 9 launch vehicle from the Air Force Western Test Range (AFWTR). Payload-class satellites include a variety of spacecraft equipped with specific instruments for various scientific and technological missions. These include communications satellites like Starlink; space stations such as the ISS; scientific satellites like the Hubble; Earth observation satellites from companies like Planet Labs, Umbra, and HawkEye 360; GPS; miniature CubeSats for education and research; and military/defense satellites.

Loading next visibility...
Identifier
60475, 2024-149H
Orbit
SSO
Country
Flag of TRTR / TURK
Related business
Manufacturer
Plan-S
Mission
Operational Commercial Communications
Bus & Motor
CUBESAT 6U, Unknown motor
Mass
10 kg wet, 10 kg dry
Launch date (UTC)
2024-08-16 (2 years ago)
Launch vehicle
FALCON 9
Launch site
Air Force Western Test Range (AFWTR)
Object type
Payload
Rocket body
Debris
Shape & HBR
Box, 2.2 m
Radar Cross Section
0.080 m², Medium (>0.1 m² and < 1m²)

Expand to show TLE details & history
Last TLE update: 7 hours ago

TLE from 7 hours ago
0 CONNECTA IOT-3
1 60475U 24149H   26174.94765740  .00003405  00000-0  14523-3 0  9994
2 60475  97.3733 250.8760 0001862 210.4003 149.7127 15.23595909102834
Epoch: 2026-06-23T22:44Z
TLE epoch observation values (Epoch: 2026-06-23T22:44:37.599Z)
Latitude
0.00004°
Longitude
-2.39258°
Altitude
499.206 km
Speed
7.614 km/s
True Right ascension
16h 43m 30s
True Declination
0° 00' 00"
Sunlit
Object was in full shadow at epoch
Visualization orbit readout
Latitude
Unknown
Longitude
Unknown
Altitude
Unknown
Speed
Unknown
Apparent Right ascension
Unknown
Apparent Declination
Unknown
Sunlit
N/A
Visualization observer readout
Local Sidereal Time
16:55:01
Azimuth
Unknown
Elevation
Unknown
Doppler factor
Unknown
Orbital elements
Apogee altitude
493.244 km
Perigee altitude
490.685 km
Semi-major axis
6,870.102 km
Eccentricity
0.00019
Inclination
97.3733°
RAAN
250.876°
Arg. of periapsis
210.4003°
True anomaly
149.72346°
Mean anomaly
149.7127°
Eccentric anomaly
149.71808°
Mean motion
3.81152 °/min
Orbital period
94.45 mins
BSTAR
0.00014523
Loading maneuver chart data...
Computing Atmospheric mass density...

Documentation

Showing up to 5 results
|